Location: Newark
(21.1200°N, 73.4000°E)
Time: 11:45:49
(UTC+00:00)

SR - Pass Details

Date: 01 February 2020
Orbit: 576 x 880 km, 66.7° (Epoch: 28 February)

Event Time Altitude Azimuth Distance (km) Brightness Sun altitude
Rises 13:09:48 0° 151° (SSE) 3,303 ? -3.8°
Reaches altitude 10° 13:15:03 10° 109° (ESE) 2,454 ? -5.0°
Maximum altitude 13:15:38 10° 103° (ESE) 2,451 ? -5.1°
Drops below altitude 10° 13:16:14 10° 97° (E) 2,469 ? -5.3°
Enters shadow 13:18:47 - 74° (ENE) 2,780 ? -5.8°
Sets 13:21:39 0° 56° (NE) 3,457 - -6.5°
